Overview Statistics Trail Chart Weather Telemetry Raw packets
 

This is the latest recevied weather packets stored in our database for station/object W4UWO. If no packets are shown the sender has not sent any weather packets the latest 10 day(s).

<< 69 70 71 72 73 74 75 >>
Time Temp. Humidity Pressure Rain* Wind** Luminosity Snow
1788131533 32.78° C 52% 1018.7 hPa 0 mm - 31 W/m² -
1788131228 32.78° C 53% 1018.7 hPa 0 mm - 30 W/m² -
1788130923 32.78° C 52% 1018.8 hPa 0 mm - 33 W/m² -
1788130618 32.78° C 53% 1018.7 hPa 0 mm - 47 W/m² -
1788130318 32.78° C 53% 1018.7 hPa 0 mm - 55 W/m² -
1788130017 32.78° C 53% 1018.7 hPa 0 mm - 63 W/m² -
1788129713 32.78° C 52% 1018.5 hPa 0 mm - 67 W/m² -
1788129410 32.78° C 50% 1018.5 hPa 0 mm - 70 W/m² -
1788129110 32.78° C 51% 1018.3 hPa 0 mm - 71 W/m² -
1788128804 32.78° C 51% 1018.6 hPa 0 mm - 85 W/m² -
1788128500 32.78° C 51% 1018.4 hPa 0 mm - 99 W/m² -
1788128196 32.78° C 51% 1018.6 hPa 0 mm - 93 W/m² -
1788127892 32.78° C 50% 1018.9 hPa 0 mm - 84 W/m² -
1788127587 32.78° C 50% 1018.5 hPa 0 mm - 98 W/m² -
1788127286 32.78° C 50% 1018.5 hPa 0 mm - 104 W/m² -
1788126985 32.78° C 50% 1018.7 hPa 0 mm - 99 W/m² -
1788126680 32.78° C 50% 1018.4 hPa 0 mm - 95 W/m² -
1788126375 33.33° C 49% 1018.5 hPa 0 mm - 83 W/m² -
1788126070 33.89° C 48% 1018.5 hPa 0 mm - 96 W/m² -
1788125769 33.89° C 48% 1018.5 hPa 0 mm - 111 W/m² -
1788125465 34.44° C 46% 1018.6 hPa 0 mm - 155 W/m² -
1788125161 33.89° C 45% 1018.6 hPa 0 mm - 143 W/m² -
1788124855 34.44° C 45% 1018.6 hPa 0 mm - 169 W/m² -
1788124550 33.89° C 46% 1018.6 hPa 0 mm - 169 W/m² -
1788124249 33.89° C 47% 1018.7 hPa 0 mm - 193 W/m² -

* Rain latest hour (hover to see other rain measurements)
** Current wind speed in m/s (hover to see current wind gust speed)